Lapse_Rate
5.5 5.2 5.3 5.3 5.1 4.6 5.6 5.6 5.4 5.4 5.2 5.3 5.1 5.0 4.6 4.6 4.8 4.6 4.7 4.4 3.9 3.4 2.9 2.5 3.2 4.5 5.2 5.7 6.0 6.1 6.2 6.4 6.4 6.5 6.5 6.6 6.5 6.5 6.4 6.4 6.3 6.3 6.2 6.2 6.0 6.0 6.0 6.2 6.1 6.0 6.1 6.1 6.2 6.4
5.5 5.2 5.5 5.3 5.2 4.7 5.5 5.4 5.4 5.3 5.3 5.3 5.2 4.8 4.6 4.5 4.7 4.7 4.8 4.5 4.1 3.8 3.3 2.8 3.1 4.2 4.7 5.3 6.0 6.2 6.3 6.4 6.4 6.6 6.7 6.7 6.6 6.6 6.5 6.5 6.3 6.2 6.2 6.2 6.3 6.5 6.3 6.2 6.1 6.0 5.9 5.9 6.1 6.4
5.6 5.7 5.2 5.2 5.2 5.5 5.5 5.4 5.3 5.3 5.3 5.3 5.4 4.8 4.5 4.6 4.7 4.5 4.7 4.7 4.1 4.1 3.5 3.1 3.1 3.7 4.6 5.4 5.8 6.1 6.3 6.4 6.4 6.5 6.7 6.7 6.6 6.6 6.5 6.5 6.4 6.3 6.1 5.9 6.0 6.2 6.4 6.3 6.2 6.2 6.1 6.0 6.2 6.1
5.4 5.3 5.6 5.4 4.7 5.3 5.6 5.4 5.3 5.4 5.1 5.5 5.1 4.9 4.8 4.9 5.1 4.9 4.7 4.4 4.6 4.6 3.8 3.5 3.6 3.6 4.6 5.6 5.7 5.8 6.4 6.6 6.5 6.4 6.4 6.4 6.5 6.5 6.5 6.4 6.2 6.1 6.0 5.8 6.1 6.1 6.3 6.4 6.3 6.0 6.4 6.1 6.1 6.1
5.4 5.3 5.7 5.4 4.8 5.7 5.6 5.5 5.5 5.2 5.6 5.7 4.9 5.1 5.4 5.1 5.5 5.1 4.8 4.9 4.8 4.7 4.6 4.2 4.0 4.2 4.7 5.5 6.0 6.1 6.2 6.3 6.4 6.2 6.0 6.2 6.3 6.3 6.3 6.2 6.0 5.9 5.9 5.8 6.0 6.0 6.1 6.8 6.8 6.6 6.7 6.5 6.2 6.1
5.3 5.4 5.6 5.6 4.7 5.8 5.5 5.4 5.2 5.5 5.6 5.8 5.4 5.5 5.6 5.7 5.8 5.4 5.2 5.2 5.2 5.1 5.0 4.8 4.7 4.7 4.8 5.4 6.1 6.4 6.3 6.2 5.8 6.0 6.0 5.9 6.0 6.1 6.1 5.8 5.6 5.8 5.9 5.8 5.7 6.0 6.2 6.3 6.3 6.2 6.7 6.5 6.4 6.3
5.3 5.2 5.3 5.5 5.1 5.5 5.6 5.3 5.4 5.5 5.8 5.9 5.7 6.4 6.1 6.5 6.1 5.9 5.9 5.7 5.8 5.8 5.6 5.6 5.3 5.2 5.5 5.7 5.8 6.4 6.4 6.5 6.0 5.7 5.6 5.8 5.9 5.9 6.0 5.8 5.7 5.9 6.2 6.1 6.1 6.1 6.6 6.4 6.4 6.2 6.0 6.0 6.2 6.2
5.4 5.3 5.4 5.4 5.4 5.5 5.4 5.4 5.4 5.8 5.8 5.9 6.3 6.4 6.5 6.7 6.6 6.5 6.3 6.5 6.4 6.4 6.2 6.2 6.0 6.0 6.0 6.0 6.0 6.2 6.2 6.5 6.2 6.0 6.1 6.2 6.1 5.9 5.9 6.0 6.1 6.2 6.7 6.5 6.4 6.3 6.2 6.4 6.5 6.2 6.1 6.0 6.1 6.0
5.3 5.2 5.4 4.6 5.4 5.4 5.2 5.3 5.4 5.8 5.6 6.3 6.7 6.5 6.6 6.8 6.8 6.6 6.5 6.9 6.9 6.8 6.6 6.7 6.8 6.6 6.9 6.9 6.5 6.1 5.9 5.6 5.9 6.2 6.4 6.2 6.1 5.9 6.1 6.3 6.5 6.7 6.8 6.9 6.8 6.4 6.3 6.2 6.3 6.1 6.2 6.3 6.4 6.3
5.3 5.1 4.8 4.6 5.5 5.5 5.2 5.4 5.7 5.9 6.2 6.4 6.6 6.6 6.8 7.3 7.0 6.9 7.1 7.4 7.1 7.0 7.0 7.1 7.2 7.0 7.2 7.3 7.2 6.7 6.1 5.9 5.2 5.5 6.0 6.2 6.1 6.2 6.3 6.5 6.6 6.8 6.9 7.0 7.2 7.2 7.1 6.9 6.7 6.6 6.4 6.3 6.3 6.3
5.6 5.2 4.3 5.6 5.5 5.3 5.5 5.5 5.8 6.3 6.5 6.7 6.7 6.8 7.1 7.4 7.2 7.3 7.5 7.4 7.3 7.3 7.2 7.2 7.1 7.1 7.2 7.2 7.2 7.1 6.6 6.4 6.2 6.1 5.9 5.9 6.3 6.5 6.5 6.4 6.5 6.7 6.8 6.9 6.9 6.9 6.9 6.8 6.6 6.6 6.4 5.8 6.1 6.1
5.7 4.9 4.9 5.2 5.2 5.2 5.3 5.9 6.4 6.7 6.7 6.9 7.1 6.9 7.0 7.4 7.5 7.4 7.3 7.3 7.2 7.2 7.1 7.1 7.1 7.1 7.0 7.1 7.2 6.8 6.7 6.5 6.4 6.1 6.1 6.0 6.3 6.6 6.6 6.7 6.6 6.7 6.8 6.8 7.0 7.0 6.9 6.8 6.8 6.6 6.4 6.2 6.1 6.0
4.9 4.3 5.0 5.0 5.0 5.1 5.4 5.5 6.1 6.6 6.5 7.1 7.0 6.7 6.9 7.1 7.2 7.3 7.2 7.1 7.0 6.8 6.7 6.7 6.8 6.8 6.8 6.8 6.8 6.7 6.3 5.8 5.7 5.6 6.1 6.4 6.1 6.0 6.2 6.3 6.2 6.3 6.6 6.8 7.0 7.0 6.9 7.0 6.9 6.9 6.8 6.3 6.2 6.3
3.8 4.7 4.7 5.2 5.0 4.9 5.1 6.2 6.9 6.8 6.9 7.0 6.7 6.6 6.5 6.5 6.7 7.0 7.0 6.9 6.7 6.6 6.6 6.5 6.5 6.5 6.4 6.4 6.7 6.5 5.7 5.4 5.3 5.7 6.2 6.2 6.1 6.2 6.4 6.6 6.3 6.1 6.2 6.6 6.8 6.9 7.0 6.8 7.0 6.9 7.0 6.7 6.4 6.2
3.8 4.4 5.0 5.1 4.8 5.3 6.1 6.7 6.8 6.8 6.9 6.9 6.8 6.6 6.4 6.6 6.7 6.9 7.0 6.8 6.5 6.3 5.9 5.9 6.2 6.2 6.2 6.4 6.4 6.3 6.0 5.3 5.5 6.0 6.0 6.1 6.2 6.4 6.5 6.4 6.2 6.2 6.1 6.2 6.5 6.7 6.9 7.2 7.0 7.3 6.9 7.0 6.6 6.1
3.8 4.9 5.0 4.8 5.3 5.9 6.4 6.8 6.8 6.8 7.0 6.7 6.7 6.5 6.5 6.6 6.6 6.7 6.6 6.6 6.3 6.0 5.8 5.8 5.9 5.9 5.9 6.3 6.2 6.5 6.0 6.2 6.0 6.0 6.1 6.3 6.3 6.3 6.1 5.9 5.9 6.1 6.3 6.5 6.5 6.5 6.9 7.0 7.3 7.5 7.4 6.9 6.8 6.5
4.7 5.0 4.5 5.0 6.0 6.0 6.7 6.7 6.8 6.8 6.7 6.8 6.5 6.5 6.5 6.5 6.6 6.6 6.6 6.5 6.4 6.1 5.8 5.8 5.6 5.9 5.9 6.0 6.0 6.1 6.2 6.1 6.0 5.6 5.6 5.9 6.0 5.9 5.8 6.0 6.3 6.6 6.9 6.9 6.8 6.7 6.9 7.0 6.7 7.2 7.3 6.9 6.7 6.4
5.0 4.8 5.4 5.5 5.4 6.5 6.6 6.7 6.7 6.8 6.8 6.9 6.8 6.6 6.5 6.4 6.4 6.5 6.4 6.4 6.5 6.1 5.8 5.6 5.4 5.7 5.8 5.7 6.0 5.9 5.9 5.8 5.8 5.7 5.7 5.8 5.8 5.9 6.0 6.0 6.8 6.9 7.0 6.9 7.1 7.2 7.3 7.4 7.3 7.1 7.0 6.7 6.5 6.4
5.1 5.5 5.2 5.5 6.3 6.8 6.6 6.5 6.7 6.8 6.9 6.9 6.9 6.7 6.5 6.4 6.3 6.3 6.3 6.3 6.2 5.8 5.6 5.5 5.5 5.8 5.8 5.7 5.4 5.4 5.5 5.7 5.6 5.6 5.5 5.8 5.8 5.5 5.8 6.5 6.8 7.0 7.2 7.6 7.7 7.8 7.8 7.7 7.3 7.2 6.9 6.4 6.2 6.4
6.1 5.8 6.1 6.6 6.7 6.7 6.7 6.5 6.7 6.7 6.8 7.0 6.8 6.7 6.4 6.2 6.3 6.3 6.3 6.3 6.2 5.8 5.6 5.4 5.8 5.6 5.3 5.3 5.4 5.5 5.6 5.3 5.3 5.3 5.5 5.5 5.9 6.1 6.5 6.9 7.3 7.5 7.7 7.9 7.9 7.9 7.8 8.0 7.7 7.2 6.8 6.5 6.1 6.3
5.1 5.8 6.3 6.8 6.9 6.7 6.7 6.9 6.8 6.8 7.0 7.1 6.9 6.7 6.6 6.4 6.4 6.2 6.2 6.1 6.2 6.3 5.8 5.6 5.6 5.5 5.5 5.5 5.2 5.2 5.3 5.2 5.3 5.2 5.5 5.9 6.4 6.8 7.6 7.7 7.7 7.8 7.9 7.8 7.8 8.0 8.1 8.0 8.0 7.7 7.1 6.7 6.2 6.1
5.8 5.9 6.4 6.8 6.8 6.8 7.0 7.1 6.9 7.0 7.1 7.2 7.1 6.7 6.5 6.5 6.4 6.3 6.2 6.4 6.5 6.1 5.7 5.6 5.8 6.0 5.8 5.3 5.3 5.3 5.4 5.4 5.5 5.8 6.3 6.8 7.6 7.9 8.0 8.0 8.0 8.1 7.8 7.8 7.8 7.9 8.1 8.0 7.9 7.6 7.4 6.7 6.3 6.3
6.4 6.9 7.0 6.9 6.5 6.6 6.6 6.7 6.8 7.0 7.1 7.3 7.1 6.8 6.7 6.6 6.4 6.5 6.3 6.6 6.1 6.0 6.2 6.1 6.1 5.8 5.4 5.3 5.3 5.5 5.5 5.4 5.5 6.0 6.9 7.3 7.8 7.9 8.1 8.2 8.1 8.1 8.1 8.0 7.9 8.0 8.2 8.0 7.9 7.6 7.3 7.0 6.5 6.3
6.5 6.7 6.5 6.5 6.5 6.5 6.3 6.6 7.0 7.1 7.1 7.1 7.0 6.8 6.5 6.4 6.4 6.3 6.4 6.5 5.9 6.2 6.0 5.9 5.8 5.6 5.5 5.4 5.5 5.5 5.1 5.3 5.8 6.9 7.5 7.7 8.1 8.4 8.5 8.5 8.3 8.3 8.2 8.0 7.9 8.0 7.8 7.7 7.7 7.6 7.3 7.1 6.6 6.5
6.3 6.2 6.0 5.7 5.9 6.2 6.4 7.0 7.0 6.8 6.8 6.9 6.4 6.2 6.2 6.3 6.1 5.9 6.2 6.3 5.9 5.7 5.6 5.6 5.5 5.4 5.6 5.7 5.7 6.0 6.3 6.3 7.1 7.8 8.4 8.3 8.5 8.5 8.6 8.7 8.6 8.5 8.2 8.0 7.9 7.8 7.6 7.5 7.7 7.7 7.4 7.1 6.7 6.4
5.7 5.5 5.8 5.8 5.9 6.2 6.5 6.7 6.7 6.9 6.7 6.4 6.1 6.2 6.3 5.9 5.7 5.9 6.3 6.1 5.9 5.7 5.7 5.7 5.6 5.7 6.0 5.9 6.2 6.8 7.3 7.7 7.8 8.2 8.6 8.6 8.6 8.5 8.5 8.7 8.8 8.8 8.6 8.4 8.0 7.7 7.7 7.6 7.7 7.7 7.5 7.0 6.6 6.5
5.9 5.7 5.7 6.0 6.3 6.6 6.7 6.9 7.0 6.8 6.4 6.2 6.3 6.3 5.9 5.6 5.7 6.1 6.1 5.9 5.8 5.8 5.8 5.8 5.9 5.8 5.9 6.3 6.8 7.5 8.0 8.1 8.3 8.4 8.5 8.4 8.4 8.4 8.4 8.4 8.6 8.5 8.2 8.1 7.9 7.9 7.9 7.8 7.6 7.6 7.6 7.0 6.8 6.6
5.6 5.6 6.1 6.2 6.4 6.6 6.9 6.7 6.2 6.1 6.1 6.2 6.1 6.1 5.9 5.7 6.0 6.1 5.9 5.6 5.9 5.9 5.8 5.9 6.0 5.9 6.2 6.7 7.6 8.2 8.1 8.2 8.7 8.8 8.6 8.3 8.2 8.3 8.4 8.2 8.3 7.9 7.9 7.9 7.9 7.9 7.9 7.8 7.6 7.5 7.6 7.3 6.9 6.8
5.7 6.0 6.3 6.6 6.7 6.4 6.1 6.2 6.2 6.2 6.1 5.9 5.9 5.6 5.5 5.8 6.1 5.9 5.6 5.8 6.0 5.9 5.8 6.0 6.4 6.5 7.0 7.4 8.2 8.2 8.3 8.5 8.5 8.5 8.6 8.4 8.4 8.3 8.5 8.5 8.5 8.1 7.8 7.8 7.6 7.8 7.9 7.7 7.5 7.5 7.5 7.4 7.1 6.9
6.0 6.2 6.4 6.4 6.3 6.1 5.8 5.8 5.8 5.9 5.9 5.7 5.7 5.8 6.0 6.1 5.9 5.9 6.0 6.1 5.9 6.0 6.1 6.2 6.8 7.3 7.8 8.4 8.5 8.6 8.4 8.3 8.3 8.0 8.0 8.1 8.2 8.3 8.5 8.5 8.5 8.3 7.8 7.7 7.7 7.7 7.6 7.7 7.6 7.5 7.3 7.3 7.1 6.8
6.2 6.2 6.0 5.8 5.8 5.8 5.8 5.8 5.8 5.7 5.7 6.0 6.1 6.0 6.0 5.8 6.3 6.4 6.4 6.3 6.1 6.3 6.6 6.9 7.4 8.0 8.3 8.4 8.4 8.4 8.3 8.4 8.2 7.7 7.8 8.0 8.1 8.4 8.5 8.4 8.4 8.2 7.7 7.6 7.8 7.8 7.7 7.6 7.5 7.4 7.3 7.3 7.1 6.9
5.6 5.5 5.6 5.6 5.8 5.8 5.8 5.9 5.8 5.8 6.1 6.1 6.0 6.0 6.2 6.4 6.6 6.7 7.1 6.7 6.8 7.0 7.4 7.8 8.2 8.3 8.3 8.5 8.5 8.4 8.5 8.2 7.8 7.5 7.5 7.8 8.0 8.3 8.4 8.3 8.3 7.9 7.7 7.7 7.7 7.7 7.7 7.6 7.5 7.4 7.2 7.0 6.8 6.7
5.2 5.4 5.5 5.7 5.9 6.0 5.8 5.9 6.0 5.9 6.1 6.2 6.4 6.5 6.5 6.5 6.7 6.9 6.7 6.8 7.1 7.6 8.1 8.3 8.3 8.3 8.2 8.2 8.2 8.2 7.9 7.7 7.7 7.7 7.5 7.7 7.9 8.0 8.1 8.1 7.8 7.6 7.6 7.6 7.5 7.4 7.3 7.3 7.3 7.2 7.1 6.9 6.7 6.5
Wind_Speed
43 44 42 41 37 33 30 26 22 19 16 12 10 8 6 7 6 3 2 4 3 3 1 3 3 3 2 3 1 3 1 3 4 3 2 1 1 1 2 1 3 5 4 3 1 3 4 5 2 3 4 6 7 10
42 43 43 39 37 34 31 28 23 20 17 13 10 7 6 6 7 6 3 2 4 5 4 1 2 2 2 1 2 2 3 3 1 1 2 2 2 3 1 1 3 0 2 1 6 4 1 5 4 4 2 4 6 9
42 43 42 41 38 35 31 28 25 22 17 14 11 8 8 8 6 7 3 1 4 4 3 3 3 4 2 1 2 3 2 1 3 1 2 1 1 2 1 2 3 2 4 1 5 3 8 5 2 4 3 8 13 9
41 43 42 41 38 36 32 28 26 23 19 15 12 11 10 8 7 6 3 1 4 4 4 2 2 3 3 2 3 2 5 2 4 2 2 2 2 2 1 1 2 2 5 5 5 5 14 2 16 13 18 14 9 14
41 43 42 41 38 34 32 29 27 24 20 17 14 13 15 16 16 15 6 3 2 3 4 3 1 4 3 4 5 4 4 3 3 2 2 1 0 2 1 1 1 2 2 1 4 7 9 14 13 19 15 13 13 13
42 43 43 41 39 35 31 30 28 25 21 17 15 15 17 17 4 2 3 3 4 2 4 3 2 2 4 4 6 5 2 3 2 2 1 1 1 2 1 0 2 2 2 6 5 11 15 17 16 15 9 15 14 14
41 42 43 41 39 35 32 31 29 26 21 18 14 16 17 7 4 2 1 2 2 3 3 3 2 3 3 2 2 2 3 2 2 1 3 2 3 2 1 1 2 6 9 12 10 8 11 6 10 17 15 14 17 19
39 41 43 41 40 36 34 32 30 25 22 17 17 19 14 15 9 3 4 4 6 4 3 3 2 3 5 2 2 2 2 2 4 2 1 1 1 1 2 4 6 11 9 10 7 11 14 16 15 13 12 11 16 15
39 40 42 42 39 36 35 34 31 26 23 22 24 22 4 3 2 1 0 4 6 2 3 3 3 2 4 2 1 1 1 3 1 1 3 2 2 3 4 4 9 9 5 10 11 11 11 14 15 14 12 13 13 10
39 39 41 42 40 37 37 35 32 29 30 28 4 2 2 1 1 1 3 3 4 3 3 3 2 1 2 2 2 0 0 1 1 1 1 1 2 4 4 5 5 5 7 8 11 10 13 13 13 15 12 12 12 6
40 40 39 41 39 39 37 36 35 33 19 2 2 2 1 2 1 3 3 4 3 4 2 2 3 1 1 2 1 1 1 1 2 3 3 2 3 3 5 5 4 4 5 6 6 8 10 11 10 11 11 9 9 9
40 42 41 40 40 39 38 38 39 8 4 5 5 5 2 3 3 6 1 3 3 3 0 3 2 2 1 1 1 2 2 2 4 3 2 2 3 5 4 4 6 6 6 7 6 8 8 11 9 8 8 8 9 8
40 42 42 41 40 39 38 38 21 23 17 3 3 4 3 3 6 5 2 3 1 2 2 1 1 1 1 1 1 1 2 3 4 3 4 3 1 2 5 5 6 6 7 6 7 6 7 8 7 7 7 4 6 8
40 41 43 41 39 38 39 29 28 11 2 3 4 4 2 2 1 3 4 4 2 3 5 3 1 1 1 2 1 2 4 2 3 2 4 2 4 4 5 4 4 8 8 7 8 8 8 7 6 5 5 4 4 7
41 40 40 37 39 38 33 28 13 2 2 3 3 3 2 3 3 2 2 2 2 4 3 3 2 2 1 1 2 2 2 4 4 3 3 4 4 5 6 5 6 7 7 7 7 7 8 7 7 7 5 5 4 3
41 34 20 38 37 34 30 17 4 2 3 3 4 5 2 3 1 1 2 1 3 3 2 2 2 3 1 1 3 5 3 4 4 3 3 3 4 6 6 7 7 6 6 7 8 8 9 8 8 8 5 6 5 4
22 6 37 39 37 31 21 3 2 4 3 3 1 2 3 3 4 3 3 3 3 3 2 3 3 6 2 2 3 4 4 3 3 3 2 4 5 7 7 8 8 6 7 8 7 9 9 9 8 7 8 6 5 4
12 22 43 41 29 9 2 3 3 3 5 2 3 2 2 3 4 3 3 3 3 3 3 4 3 3 4 5 4 3 3 3 3 4 4 7 7 8 6 7 7 6 7 7 7 7 7 8 9 9 9 7 4 4
24 25 40 36 8 4 3 2 2 4 2 2 2 1 3 3 2 3 3 3 2 3 5 2 2 3 4 3 4 3 3 3 3 4 4 7 7 7 7 5 6 7 7 5 6 6 7 9 7 8 8 5 5 3
41 39 32 13 5 3 4 3 2 4 3 2 2 3 2 2 1 2 3 2 2 2 2 2 5 3 4 3 3 3 3 4 3 5 7 4 3 5 6 5 6 5 6 7 7 9 6 6 5 5 6 6 5 6
23 11 8 3 3 4 4 2 3 2 3 3 2 2 1 2 3 2 0 1 1 3 3 4 4 4 2 3 3 3 6 3 4 4 7 9 5 4 7 6 5 4 4 6 7 8 8 6 6 4 5 6 5 5
5 8 3 3 4 4 4 3 4 2 3 2 2 2 3 2 1 1 2 2 4 4 4 3 3 2 2 5 5 4 5 5 5 5 12 10 6 4 4 4 2 5 6 7 5 8 8 7 4 5 5 6 6 3
12 4 4 4 5 5 2 1 4 3 3 2 2 3 2 1 2 2 2 3 4 3 3 3 3 3 4 4 3 5 5 5 4 5 6 6 6 7 7 7 6 6 7 7 4 5 7 12 9 7 6 5 3 3
8 4 4 3 4 3 2 2 2 3 3 3 2 2 1 1 2 1 3 3 3 2 2 3 2 2 2 1 3 4 5 4 4 3 5 5 7 8 6 7 5 5 5 8 7 6 6 6 10 5 5 4 4 4
6 5 5 6 3 4 4 3 3 3 3 2 4 2 1 0 2 1 3 3 2 2 2 2 2 3 4 3 3 5 4 3 4 8 4 5 6 6 7 5 5 5 3 5 5 5 5 3 4 4 4 4 6 6
6 3 3 3 2 4 4 5 4 4 3 3 2 1 1 3 2 5 3 3 3 3 3 4 4 3 4 6 4 5 7 4 3 4 8 4 4 4 7 9 10 8 1 0 2 5 8 5 6 7 7 7 10 8
5 1 1 1 3 5 4 4 3 3 4 5 4 4 3 3 6 4 3 3 3 4 4 4 4 4 5 4 4 5 4 4 6 7 7 4 6 5 6 8 9 4 3 5 4 6 8 9 10 9 8 7 4 5
3 3 7 3 3 2 5 3 5 6 5 3 5 4 8 8 5 3 5 3 5 1 3 4 4 4 4 6 6 6 5 3 4 6 5 4 3 2 2 2 3 11 7 5 5 5 6 7 9 9 8 8 7 3
3 2 4 4 3 2 3 5 5 3 4 5 5 4 4 4 3 3 3 3 0 1 4 6 4 2 3 3 4 4 4 2 1 6 6 6 4 3 1 2 3 3 3 4 13 12 9 9 9 8 9 5 3 2
2 1 4 3 4 4 3 3 3 2 1 3 1 2 2 3 4 2 1 2 4 9 7 4 3 2 5 2 7 6 3 5 5 5 4 6 4 2 3 3 4 4 4 4 5 7 11 5 5 2 2 2 1 1
2 3 3 2 3 2 1 2 2 0 3 1 1 3 4 3 4 3 6 9 3 1 2 5 4 2 2 3 3 4 6 2 1 4 5 3 4 3 4 3 3 2 3 4 4 4 3 4 3 3 2 1 3 1
2 2 3 2 2 2 3 3 1 1 3 2 3 1 3 3 3 3 2 3 1 2 6 2 2 4 2 2 3 4 11 4 3 3 5 3 4 5 4 4 3 1 2 3 3 3 3 3 3 4 3 3 3 3
2 2 2 2 2 2 2 3 4 4 2 2 3 1 2 2 5 3 2 1 2 1 2 3 4 4 5 6 4 4 5 2 6 8 9 10 11 9 5 3 2 2 2 2 2 2 3 3 2 3 3 3 4 4
Wind_Direction
160 159 157 159 160 158 154 159 164 157 144 136 126 112 86 108 139 84 115 24 112 97 27 26 47 62 16 18 88 332 358 2 10 69 75 6 65 313 33 174 176 171 150 206 168 194 282 353 2 38 299 310 308 328
160 159 156 157 159 152 160 157 164 152 141 140 130 108 82 102 128 100 78 360 53 87 140 97 101 112 90 161 158 12 118 47 24 82 64 72 40 27 335 271 338 75 183 223 186 219 72 13 282 99 19 297 321 318
159 159 157 159 157 153 160 161 161 147 145 145 141 121 90 87 99 106 117 356 62 88 58 51 7 351 49 60 228 98 35 242 64 189 112 37 107 13 335 309 305 340 24 274 360 47 335 302 46 0 318 319 315 313
159 157 157 159 156 156 157 164 156 147 147 146 142 119 114 103 88 110 96 305 84 110 100 306 348 37 326 43 53 88 146 120 115 73 62 97 119 34 199 307 318 313 358 338 281 330 338 283 333 329 322 328 325 319
157 159 157 157 153 156 159 161 153 149 149 148 140 125 120 114 98 83 81 43 64 114 136 151 3 344 321 62 64 69 94 85 55 51 59 81 1 37 352 84 351 12 58 352 265 300 276 285 306 308 312 311 318 317
158 157 157 157 152 155 159 154 150 148 148 142 137 135 144 140 68 55 74 12 21 73 103 106 275 16 355 58 79 66 67 72 76 100 98 68 147 82 26 34 232 168 251 236 290 304 296 288 284 286 290 309 302 309
157 156 156 153 151 151 152 151 146 145 144 141 140 142 148 124 62 59 122 200 47 64 93 87 13 340 324 64 18 42 35 70 91 87 48 17 16 13 68 7 314 315 334 313 309 316 304 282 298 299 291 296 304 306
157 153 154 149 148 149 150 144 140 142 138 138 139 139 132 111 114 54 352 43 81 90 64 96 289 22 3 23 57 354 64 42 21 81 39 76 13 331 239 239 311 323 310 303 326 317 295 289 292 310 320 312 308 308
152 155 151 144 145 148 144 140 134 137 135 135 129 123 96 48 58 227 156 40 56 126 110 80 115 244 354 23 327 92 46 72 244 160 188 188 172 207 227 300 314 317 320 300 310 312 310 321 314 317 319 318 305 308
149 153 148 142 143 145 138 136 133 135 134 130 100 101 85 341 269 77 15 32 20 343 33 95 113 347 75 27 349 155 167 117 107 235 334 226 247 265 262 248 253 297 297 304 321 326 324 322 326 323 321 312 304 302
145 148 144 139 142 138 140 135 138 138 126 106 122 85 157 353 74 36 49 60 330 32 29 135 150 153 297 89 246 186 224 151 113 231 175 234 262 226 228 257 264 271 279 279 255 283 306 305 311 318 318 325 333 340
143 142 138 138 138 139 140 142 142 135 144 171 123 104 91 41 46 79 1 321 56 190 45 120 160 160 289 56 267 261 241 194 234 139 117 247 234 221 256 283 297 287 281 283 268 274 293 308 311 307 309 320 331 330
137 137 137 138 140 141 142 143 144 124 117 78 67 75 74 312 53 100 179 309 6 167 165 90 35 85 17 83 280 256 242 235 112 189 222 229 193 272 284 294 285 275 274 272 281 267 260 279 289 303 302 307 329 324
136 135 135 138 139 141 144 142 138 125 104 91 113 74 104 313 210 169 173 169 199 118 122 111 97 121 83 75 264 246 247 182 252 262 243 257 231 294 303 268 284 303 306 288 282 282 273 265 260 258 265 294 316 315
132 133 134 136 138 142 141 138 131 57 88 95 88 118 156 131 76 157 173 112 106 133 120 110 36 120 207 159 215 281 233 243 218 238 240 245 262 288 285 286 292 292 299 299 291 283 272 261 260 270 246 243 254 276
126 124 135 134 137 137 129 125 59 75 58 87 77 99 85 76 38 173 164 142 192 136 99 61 98 60 207 203 215 215 151 229 249 216 233 252 285 301 303 307 300 280 277 283 288 288 290 277 264 269 253 250 245 237
123 117 135 134 127 124 133 87 71 47 100 75 58 15 104 87 148 161 157 178 160 108 154 115 104 207 149 189 229 208 214 224 221 243 244 255 267 280 283 286 288 289 293 293 296 299 292 290 281 267 265 254 226 233
124 132 131 128 120 116 56 53 88 86 69 60 114 186 92 83 110 126 164 151 131 134 128 211 127 153 191 189 236 233 239 264 232 251 257 272 267 265 268 272 280 276 281 281 275 282 280 292 301 288 271 248 216 231
132 134 133 143 138 110 103 50 46 96 86 93 83 50 71 91 53 70 108 115 88 110 110 65 115 208 231 213 225 243 239 222 253 262 249 265 272 275 277 273 273 273 267 265 291 288 281 266 268 290 284 256 233 220
130 136 142 134 90 91 89 43 59 94 127 144 61 64 77 81 39 51 69 78 103 97 86 198 218 212 205 226 191 210 233 230 251 297 294 274 254 264 265 260 273 272 284 293 271 278 287 288 268 254 263 254 248 238
123 138 108 80 64 57 80 100 69 100 110 83 118 65 69 22 53 89 51 273 94 206 239 224 234 252 200 252 226 239 268 214 223 215 273 292 299 261 283 274 249 260 258 284 299 303 307 278 279 278 267 264 245 235
111 127 88 46 79 62 77 13 98 87 78 99 76 77 66 76 94 148 242 197 235 232 203 204 224 214 270 270 269 216 244 258 257 260 270 267 264 273 271 261 277 275 273 274 266 276 286 289 279 270 268 266 256 229
106 68 55 53 77 54 80 63 83 22 100 130 56 64 20 24 252 300 247 232 247 235 215 219 235 207 232 286 317 282 239 217 245 246 259 254 253 256 264 268 255 258 282 284 243 254 275 293 295 293 282 273 224 218
46 58 73 79 75 104 115 59 70 74 75 53 85 113 285 201 338 102 251 250 247 255 229 224 171 280 303 269 259 257 249 198 242 267 259 267 274 279 247 267 259 238 235 268 274 279 285 283 296 298 285 271 246 236
81 4 86 68 44 101 102 77 58 67 117 146 136 162 246 123 99 220 241 268 266 254 244 206 194 200 220 257 271 260 244 186 244 275 263 233 263 289 288 259 261 247 224 254 270 272 279 275 280 279 278 259 258 248
77 8 86 132 142 121 171 121 141 150 128 146 184 142 66 105 142 237 230 225 226 219 214 194 197 210 235 218 249 272 270 213 177 248 281 234 226 240 284 296 305 309 1 50 319 307 307 296 289 291 289 283 287 272
103 138 82 59 109 118 88 60 68 120 158 173 175 165 120 161 232 250 268 224 216 223 210 209 191 204 233 246 245 256 250 203 209 255 284 256 254 231 234 264 282 284 332 309 286 286 295 301 299 294 286 283 239 240
132 161 147 169 84 36 121 132 157 175 178 171 124 177 178 194 228 229 212 236 230 288 249 245 224 230 249 257 265 278 283 277 296 276 266 267 252 237 244 286 296 298 297 291 278 263 271 278 281 282 281 276 280 225
89 130 99 67 60 66 181 161 194 213 156 156 164 202 228 221 231 219 247 223 133 114 270 282 287 214 265 266 257 252 252 190 25 313 302 292 309 299 273 287 288 301 302 300 310 307 285 278 268 261 257 261 268 291
124 74 94 89 132 200 238 165 196 239 167 166 230 333 309 273 243 189 234 267 257 259 266 225 238 156 266 285 302 297 241 210 202 199 240 270 253 259 289 301 308 300 298 295 304 309 321 330 320 353 46 19 356 324
63 80 72 83 190 259 272 320 333 47 32 356 319 180 243 292 303 243 222 245 262 34 328 286 279 201 231 263 240 286 304 303 213 245 254 267 269 274 276 271 266 286 300 307 316 319 320 325 336 334 341 338 333 2
53 95 121 130 275 306 27 57 48 61 342 357 279 335 317 3 277 279 262 106 116 254 260 284 266 283 225 276 276 256 266 286 286 255 251 261 269 261 260 261 261 259 305 330 346 350 0 359 354 3 352 336 333 336
85 78 80 80 38 27 357 78 27 335 335 294 276 227 242 218 247 273 337 39 174 204 293 264 270 284 277 272 269 295 325 292 292 296 293 288 290 290 281 216 188 213 270 317 336 342 344 343 339 342 331 325 320 315